[[{"header":{"parameterUnit":"m.s-1","parameterCategory":1,"la1":30.2991,"la2":30.254,"lo1":-89.0895,"lo2":-89.0444,"dy":0.0017,"dx":0.0017,"nx":28,"ny":28,"refTime":"2024-03-14T03:00:00:Z","depth":0,"parameterNumber":2,"parameterNumberName":"U-component_of_WINDS"},"data":[0,0,0,0,0,0,0,0,0,0,0,0,0,0,0,0,0,0,0,0,0,0,0,0,0,0,0,0,0,0,0,0,0,0,0,0,0,0,0,0,0,0,0,0,0,0,0,0,0,0,0,0,0,0,0,0,0,0,-5.6757,-5.6757,0,-5.6824,-5.6825,-5.6825,-5.6788,-5.6786,-5.6784,-5.6782,-5.6843,-5.6847,-5.685,0,0,0,0,0,0,0,0,0,0,0,0,0,-5.6589,-5.6592,-5.6757,-5.6758,-5.6758,-5.6824,-5.6825,-5.6826,-5.6788,-5.6786,-5.6784,-5.6782,-5.6842,-5.6846,-5.685,0,0,0,0,0,0,0,0,0,0,0,0,0,-5.666,-5.6594,-5.6757,-5.6748,-5.6748,-5.6824,-5.6825,-5.6826,-5.6789,-5.6786,-5.6783,-5.678,-5.6841,-5.6846,-5.6851,-5.6937,0,0,-5.6866,-5.6868,0,0,0,0,0,0,0,0,-5.6656,-5.6666,-5.6748,-5.6749,-5.6749,-5.6795,-5.6788,-5.6863,-5.6789,-5.6773,-5.6782,-5.6779,-5.6829,-5.6835,-5.6853,-5.694,-5.6942,-5.6866,-5.6869,-5.6872,-5.6873,0,0,0,0,0,0,0,-5.6651,-5.6663,-5.6783,-5.6749,-5.675,-5.6738,-5.6745,-5.6802,-5.6815,-5.6774,-5.6771,-5.678,-5.6828,-5.6848,-5.6854,-5.6943,-5.6866,-5.6871,-5.6874,-5.6876,-5.7103,-5.7106,0,0,0,0,0,0,-5.6647,-5.6659,-5.6781,-5.6785,-5.6695,-5.6744,-5.6751,-5.6783,-5.6815,-5.6817,-5.6783,-5.6778,-5.6841,-5.6848,-5.6856,-5.6958,-5.6872,-5.6876,-5.6879,-5.71,-5.7104,-5.7107,0,0,0,0,0,0,-5.6644,-5.6659,-5.6778,-5.6721,-5.6736,-5.6749,-5.6785,-5.6785,-5.6805,-5.6821,-5.6823,-5.6801,-5.6839,-5.6849,-5.6917,-5.6959,-5.6879,-5.6883,-5.7096,-5.7101,-5.7105,-5.7163,0,0,0,0,0,0,-5.6639,-5.6658,-5.6692,-5.6723,-5.6739,-5.684,-5.6788,-5.6789,-5.6815,-5.681,-5.6839,-5.6841,-5.6838,-5.691,-5.6922,-5.6965,-5.6887,-5.7093,-5.7099,-5.7104,-5.7157,-5.7168,-5.7178,0,0,0,0,0,-5.6634,-5.6704,-5.6694,-5.6709,-5.6782,-5.6843,-5.6852,-5.6849,-5.6819,-5.6852,-5.6862,-5.684,-5.6954,-5.6918,-5.6931,-5.6975,-5.709,-5.7097,-5.7103,-5.7152,-5.7166,-5.7178,0,0,0,0,0,0,-5.6674,-5.6707,-5.6697,-5.6779,-5.6809,-5.6836,-5.6878,-5.6864,-5.6901,-5.6894,-5.6888,-5.6894,-5.6965,-5.6978,-5.6937,-5.706,-5.7017,-5.7027,-5.7049,-5.7063,-5.7073,-5.7067,-5.6891,0,0,0,0,0,-5.6693,-5.6742,-5.6768,-5.6838,-5.6854,-5.6864,-5.689,-5.6886,-5.6915,-5.6926,-5.6942,-5.6969,-5.7011,-5.7038,-5.7077,-5.716,-5.7164,-5.7197,-5.7208,-5.7217,-5.7224,-5.7268,-5.7282,-5.7129,-5.7129,-5.7129,0,0,-5.6732,-5.6756,-5.6787,-5.6847,-5.6869,-5.6917,-5.6874,-5.6927,-5.6962,-5.6933,-5.6999,-5.7012,-5.7041,-5.7117,-5.7151,-5.7129,-5.7268,-5.7226,-5.7233,-5.7235,-5.7276,-5.729,-5.7303,-5.7134,-5.7133,-5.7132,0,0,-5.6826,-5.6851,-5.6912,-5.6936,-5.6972,-5.6979,-5.6994,-5.7024,-5.7032,-5.7099,-5.7079,-5.712,-5.7192,-5.7214,-5.7235,-5.7341,-5.7321,-5.7354,-5.7409,-5.7451,-5.7463,-5.7474,-5.7509,-5.7522,-5.7362,-5.7363,-5.7363,0,-5.6868,-5.6943,-5.6944,-5.6999,-5.7025,-5.7006,-5.7066,-5.7089,-5.7135,-5.7152,-5.7129,-5.722,-5.7239,-5.7319,-5.7345,-5.7364,-5.7378,-5.7349,-5.7462,-5.7472,-5.7482,-5.7516,-5.753,-5.7366,-5.7366,-5.7365,-5.7365,0,-5.6992,-5.7044,-5.7089,-5.7137,-5.7168,-5.7226,-5.7234,-5.7265,-5.726,-5.7269,-5.7336,-5.7359,-5.7402,-5.7422,-5.7416,-5.7501,-5.7487,-5.7463,-5.7418,-5.75,-5.7532,-5.7545,-5.7371,-5.737,-5.7369,-5.7368,0,0,-5.7109,-5.716,-5.7176,-5.7198,-5.7238,-5.7276,-5.7333,-5.7379,-5.7405,-5.7438,-5.7483,-5.7547,-5.7526,-5.7549,-5.7546,-5.7584,-5.7664,-5.7555,-5.7556,-5.7572,-5.7757,-5.7772,-5.7788,-5.7653,-5.7656,-5.7658,-5.7754,0,-5.7204,-5.7305,-5.7309,-5.74,-5.7447,-5.7432,-5.748,-5.7509,-5.752,-5.7559,-5.757,-5.7614,-5.7585,-5.7599,-5.7636,-5.7647,-5.7701,-5.764,-5.7692,-5.7694,-5.7681,-5.7804,-5.782,-5.791,-5.7767,-5.7769,-5.777,0,-5.7327,-5.7367,-5.7464,-5.7498,-5.7518,-5.7562,-5.7604,-5.7644,-5.7676,-5.7681,-5.7709,-5.7701,-5.7756,-5.7714,-5.7789,-5.7747,-5.7769,-5.7778,-5.7782,-5.7783,-5.7734,-5.7806,-5.7938,-5.795,-5.779,-5.7789,-5.7787,0,-5.7399,-5.7478,-5.7546,-5.7565,-5.7607,-5.7639,-5.7657,-5.7687,-5.7714,-5.7751,-5.7768,-5.7811,-5.7833,-5.7865,-5.7867,-5.7836,-5.7942,-5.79,-5.7945,-5.7945,-5.7964,-5.7962,-5.8099,-5.7985,-5.7985,-5.7984,-5.7984,0,-5.7502,-5.7561,-5.7579,-5.762,-5.7686,-5.769,-5.7754,-5.777,-5.7797,-5.7839,-5.7829,-5.7868,-5.7871,-5.7911,-5.7914,-5.7974,-5.7985,-5.7989,-5.7988,-5.7987,-5.7987,-5.7998,-5.7991,-5.7988,-5.7987,-5.7986,-5.7986,0,-5.7592,-5.7607,-5.768,-5.7715,-5.7726,-5.7772,-5.7801,-5.7839,-5.7851,-5.7905,-5.7918,-5.7934,-5.7981,-5.7988,-5.8043,-5.8044,-5.8116,-5.8111,-5.8106,-5.8104,-5.8147,-5.8142,-5.8293,-5.8312,-5.8189,-5.8191,-5.8192,0,-5.7655,-5.7701,-5.7742,-5.7772,-5.7793,-5.784,-5.7869,-5.7876,-5.7906,-5.7947,-5.798,-5.8027,-5.8064,-5.814,-5.8155,-5.8196,-5.8189,-5.824,-5.8195,-5.8193,-5.8186,-5.8182,-5.8186,-5.8247,-5.8248,-5.8249,-5.825,0,-5.7764,-5.777,-5.7814,-5.7861,-5.7897,-5.7934,-5.7968,-5.7992,-5.8003,-5.8037,-5.8087,-5.8116,-5.8174,-5.8219,-5.8261,-5.8277,-5.8264,-5.8265,-5.8277,-5.8275,-5.8269,-5.827,-5.8125,-5.826,-5.8259,-5.8258,-5.8258,-5.8257,-5.784,-5.788,-5.7916,-5.7965,-5.7993,-5.8026,-5.8064,-5.8082,-5.8125,-5.8173,-5.8175,-5.8229,-5.826,-5.8315,-5.8335,-5.8376,-5.8359,-5.8377,-5.8381,-5.8384,-5.8387,-5.8267,-5.8384,-5.8383,-5.8383,-5.8383,-5.8383,0,-5.7946,-5.797,-5.8016,-5.8066,-5.8105,-5.8095,-5.8133,-5.8165,-5.8213,-5.8245,-5.8283,-5.834,-5.8385,-5.8405,-5.8449,-5.8477,-5.8473,-5.8488,-5.8484,-5.8488,-5.8401,-5.8385,-5.8491,-5.8491,-5.8491,-5.8491,-5.8491,-5.8491,-5.8006,-5.8072,-5.8083,-5.8162,-5.8185,-5.824,-5.8262,-5.8292,-5.8318,-5.8383,-5.8421,-5.8436,-5.8462,-5.8508,-5.8549,-5.8553,-5.8568,-5.8586,-5.8587,-5.8505,-5.8494,-5.8483,-5.8468,-5.859,-5.859,-5.867,-5.8671,-5.8672]},{"header":{"parameterUnit":"m.s-1","parameterCategory":1,"la1":30.2991,"la2":30.254,"lo1":-89.0895,"lo2":-89.0444,"dy":0.0017,"dx":0.0017,"nx":28,"ny":28,"refTime":"2024-03-14T03:00:00:Z","depth":0,"parameterNumber":3,"parameterNumberName":"V-component_of_WINDS"},"data":[0,0,0,0,0,0,0,0,0,0,0,0,0,0,0,0,0,0,0,0,0,0,0,0,0,0,0,0,0,0,0,0,0,0,0,0,0,0,0,0,0,0,0,0,0,0,0,0,0,0,0,0,0,0,0,0,0,0,2.5647,2.5647,0,2.5652,2.5652,2.5652,2.5634,2.5633,2.5633,2.5632,2.5634,2.5634,2.5635,0,0,0,0,0,0,0,0,0,0,0,0,0,2.5621,2.5621,2.5647,2.5647,2.5647,2.5652,2.5652,2.5652,2.5634,2.5633,2.5633,2.5632,2.5634,2.5634,2.5635,0,0,0,0,0,0,0,0,0,0,0,0,0,2.563,2.5622,2.5647,2.5639,2.5638,2.5652,2.5652,2.5652,2.5634,2.5633,2.5633,2.5632,2.5633,2.5634,2.5635,2.5656,0,0,2.5637,2.5638,0,0,0,0,0,0,0,0,2.5629,2.5631,2.564,2.5639,2.5639,2.5642,2.5644,2.5653,2.5634,2.5636,2.5632,2.5631,2.5637,2.5637,2.564,2.5656,2.5656,2.5637,2.5638,2.5638,2.5639,0,0,0,0,0,0,0,2.5629,2.563,2.5649,2.564,2.5639,2.5635,2.5635,2.5645,2.564,2.5635,2.5634,2.5635,2.5636,2.5639,2.564,2.5656,2.5637,2.5638,2.5639,2.5639,2.5695,2.5696,0,0,0,0,0,0,2.5629,2.563,2.5649,2.5649,2.5632,2.5636,2.5636,2.5641,2.564,2.5639,2.5636,2.5634,2.5638,2.5639,2.564,2.5668,2.5638,2.5639,2.564,2.5694,2.5695,2.5696,0,0,0,0,0,0,2.5629,2.5631,2.5648,2.5639,2.5641,2.5637,2.5643,2.5642,2.5645,2.5641,2.564,2.564,2.5638,2.5639,2.5653,2.5667,2.5639,2.564,2.5693,2.5694,2.5695,2.5721,0,0,0,0,0,0,2.5628,2.5631,2.5639,2.564,2.5642,2.5662,2.5644,2.5643,2.5647,2.5645,2.5644,2.5643,2.5637,2.5652,2.5654,2.5668,2.5641,2.5691,2.5693,2.5695,2.5719,2.5724,2.5727,0,0,0,0,0,2.5627,2.5644,2.5639,2.5642,2.5651,2.5663,2.5664,2.5658,2.5648,2.5656,2.5654,2.5643,2.5665,2.5654,2.5656,2.567,2.569,2.5693,2.5695,2.5717,2.5723,2.5727,0,0,0,0,0,0,2.5642,2.5644,2.5639,2.5656,2.566,2.566,2.567,2.5663,2.5668,2.5666,2.5657,2.5657,2.5674,2.5673,2.5661,2.5693,2.5676,2.5679,2.5693,2.5698,2.5702,2.5702,2.5641,0,0,0,0,0,2.5648,2.5658,2.5658,2.5674,2.5677,2.5673,2.5678,2.5673,2.5676,2.5677,2.5676,2.5679,2.5687,2.5692,2.5699,2.5719,2.572,2.573,2.5734,2.5737,2.574,2.5755,2.576,2.5703,2.5703,2.5703,0,0,2.5659,2.5661,2.5667,2.5677,2.568,2.5691,2.5674,2.5685,2.5694,2.5678,2.5694,2.5693,2.5696,2.5715,2.5723,2.5715,2.5756,2.574,2.5743,2.5744,2.5758,2.5763,2.5768,2.5705,2.5705,2.5704,0,0,2.5686,2.5687,2.5702,2.5707,2.5712,2.571,2.5714,2.5716,2.5716,2.5732,2.5722,2.5732,2.5744,2.5748,2.5751,2.5785,2.5776,2.5787,2.5808,2.5823,2.5827,2.5831,2.5846,2.5851,2.579,2.579,2.579,0,2.5698,2.5715,2.571,2.5724,2.573,2.572,2.5736,2.5739,2.5746,2.575,2.5741,2.5761,2.5761,2.5783,2.5792,2.5794,2.5799,2.5787,2.5827,2.5831,2.5835,2.5849,2.5854,2.5791,2.5791,2.5791,2.5791,0,2.5732,2.5745,2.5756,2.5766,2.5773,2.5787,2.5786,2.5793,2.5789,2.5789,2.5807,2.5808,2.5817,2.5822,2.5816,2.5844,2.5839,2.5829,2.5812,2.5842,2.5855,2.586,2.5794,2.5793,2.5793,2.5792,0,0,2.5765,2.5776,2.5781,2.5787,2.5794,2.5804,2.5819,2.583,2.5838,2.5844,2.5858,2.5872,2.5864,2.5868,2.5863,2.5876,2.5907,2.5864,2.5864,2.5874,2.5941,2.595,2.5956,2.5901,2.5902,2.5903,2.5942,0,2.5793,2.5821,2.582,2.5846,2.586,2.5852,2.5866,2.5873,2.5874,2.5885,2.5886,2.5897,2.5884,2.5887,2.5899,2.59,2.592,2.5897,2.5915,2.5915,2.5916,2.5962,2.5971,2.6008,2.5946,2.5947,2.5948,0,2.5828,2.584,2.5869,2.5879,2.5884,2.5897,2.5909,2.592,2.5928,2.5928,2.5936,2.593,2.5947,2.5931,2.5955,2.594,2.5947,2.5949,2.5951,2.5953,2.5934,2.5968,2.6019,2.6025,2.5955,2.5955,2.5954,0,2.5853,2.5875,2.5896,2.5901,2.5913,2.5923,2.5927,2.5935,2.5944,2.5954,2.596,2.5972,2.5978,2.5988,2.5987,2.5974,2.6013,2.5995,2.6015,2.6015,2.6023,2.6023,2.6078,2.6025,2.6025,2.6025,2.6025,0,2.5885,2.5903,2.5908,2.5921,2.5943,2.5942,2.5963,2.5967,2.5975,2.5989,2.5982,2.5996,2.5993,2.6007,2.6006,2.6028,2.603,2.6032,2.6032,2.6033,2.6034,2.6038,2.6037,2.6026,2.6026,2.6026,2.6026,0,2.5915,2.5919,2.5942,2.5953,2.5956,2.5972,2.5981,2.5994,2.5997,2.6016,2.602,2.6023,2.604,2.604,2.6057,2.6057,2.6086,2.6081,2.6083,2.6083,2.6104,2.6103,2.6165,2.6175,2.6114,2.6115,2.6115,0,2.5936,2.5951,2.5965,2.5975,2.5982,2.5998,2.6008,2.6009,2.6019,2.6033,2.6045,2.6062,2.6075,2.6102,2.6106,2.6121,2.6118,2.6139,2.612,2.6123,2.6121,2.6121,2.6124,2.6143,2.6143,2.6144,2.6144,0,2.5973,2.5975,2.599,2.6008,2.6021,2.6034,2.6046,2.6055,2.6057,2.607,2.6089,2.6099,2.6121,2.6138,2.6153,2.6158,2.6153,2.6151,2.6157,2.6159,2.6161,2.6163,2.6096,2.6149,2.6149,2.6148,2.6148,2.6148,2.6,2.6015,2.6029,2.6047,2.6058,2.6071,2.6085,2.6092,2.6107,2.6126,2.6126,2.6147,2.6159,2.618,2.6187,2.6204,2.6196,2.6204,2.6206,2.6208,2.6212,2.6158,2.6206,2.6206,2.6206,2.6205,2.6205,0,2.6039,2.6049,2.6066,2.6086,2.6101,2.6097,2.6112,2.6125,2.6145,2.6157,2.6172,2.6196,2.6214,2.6222,2.624,2.6252,2.625,2.6257,2.6257,2.6259,2.6216,2.6211,2.6259,2.6259,2.6259,2.6259,2.6259,2.6259,2.6061,2.6087,2.6092,2.6124,2.6134,2.6157,2.6166,2.6179,2.6189,2.6217,2.6233,2.6239,2.625,2.627,2.6288,2.6289,2.6297,2.6306,2.6307,2.6266,2.6261,2.6256,2.6251,2.6307,2.6307,2.6348,2.6349,2.6349]}]]